Weather History for Daviess Cnty AP, Washington,, IN

Change the Weather History Date:

Tuesday, March 4, 2014

  Actual Average (KLWV) Record (KLWV)
Temperature  
Mean Temperature 20 °F 41 °F  
Max Temperature 30 °F 51 °F 76 °F (1992)
Min Temperature 10 °F 31 °F 6 °F (2002)
Degree Days  
Heating Degree Days 45 24  
Month to date heating degree days 98  
Since 1 July heating degree days 3773  
Cooling Degree Days 0 0  
Month to date cooling degree days 0  
Year to date cooling degree days 0  
Moisture  
Dew Point 13 °F    
Average Humidity 72    
Maximum Humidity 94    
Minimum Humidity 50    
Precipitation  
Precipitation 0.00 in 0.08 in 1.46 in (1979)
Month to date precipitation 0.32  
Year to date precipitation 4.71  
Sea Level Pressure  
Sea Level Pressure 30.27 in    
Wind  
Wind Speed 3 mph (ESE)    
Max Wind Speed 7 mph    
Max Gust Speed -    
Visibility 10 miles    
Events      
T = Trace of Precipitation, MM = Missing Value Source: NWS Daily Summary

Daily Weather History Graph

Daily Weather History Graph

Search for Another Location

Airport:

Trip Planner

Search our weather history database for the weather conditions in past years. The results will help you decide how hot, cold, wet, or windy it might be!

Date:

Astronomy

Mar. 04, 2014 Rise Set
Actual Time 7:16 AM EST 6:44 PM EST
Civil Twilight 6:49 AM EST 7:11 PM EST
Nautical Twilight 6:19 AM EST 7:41 PM EST
Astronomical Twilight 5:48 AM EST 8:12 PM EST
Moon 9:04 AM EST (3/4) 10:48 PM EST (3/4)
Length of Visible Light 12h 21m
Length of Day
11h 28m
Waxing Crescent, 14% of the Moon is Illuminated
Mar 4
Waxing Crescent
Mar 8
First Quarter
Mar 16
Full
Mar 23
Last Quarter
Mar 30
New

Hourly Weather History & Observations

Time (EST) Temp. Windchill Dew Point Humidity Pressure Visibility Wind Dir Wind Speed Gust Speed Precip Events Conditions
12:15 AM 16.2 °F 7.6 °F 6.1 °F 65% 30.37 in 10.0 mi East 5.8 mph - N/A   Clear
12:35 AM 15.8 °F 7.2 °F 6.6 °F 67% 30.36 in 10.0 mi East 5.8 mph - N/A   Clear
12:55 AM 15.6 °F 8.3 °F 6.6 °F 68% 30.36 in 10.0 mi East 4.6 mph - N/A   Clear
1:15 AM 14.9 °F 7.5 °F 6.8 °F 70% 30.36 in 10.0 mi ESE 4.6 mph - N/A   Clear
1:35 AM 14.7 °F 7.3 °F 6.1 °F 69% 30.36 in 10.0 mi East 4.6 mph - N/A   Clear
1:55 AM 14.5 °F 8.8 °F 6.1 °F 69% 30.36 in 10.0 mi East 3.5 mph - N/A   Clear
2:15 AM 14.0 °F 8.2 °F 7.0 °F 74% 30.37 in 10.0 mi ENE 3.5 mph - N/A   Clear
2:35 AM 13.8 °F 8.0 °F 7.7 °F 77% 30.37 in 10.0 mi East 3.5 mph - N/A   Clear
2:55 AM 13.5 °F - 7.7 °F 78% 30.36 in 10.0 mi Calm Calm - N/A   Clear
3:15 AM 13.3 °F - 7.3 °F 77% 30.36 in 10.0 mi Calm Calm - N/A   Clear
3:35 AM 13.3 °F 7.3 °F 6.8 °F 75% 30.34 in 10.0 mi ENE 3.5 mph - N/A   Clear
3:55 AM 13.3 °F 3.0 °F 5.9 °F 72% 30.31 in 10.0 mi ESE 6.9 mph - N/A   Clear
4:15 AM 13.1 °F 4.0 °F 5.7 °F 72% 30.31 in 10.0 mi ESE 5.8 mph - N/A   Clear
4:35 AM 13.6 °F 7.7 °F 6.6 °F 74% 30.32 in 10.0 mi East 3.5 mph - N/A   Clear
4:55 AM 13.1 °F 5.4 °F 5.9 °F 73% 30.31 in 10.0 mi East 4.6 mph - N/A   Clear
5:15 AM 12.7 °F 3.6 °F 6.1 °F 75% 30.31 in 10.0 mi East 5.8 mph - N/A   Clear
5:35 AM 12.2 °F 4.3 °F 5.9 °F 76% 30.32 in 10.0 mi East 4.6 mph - N/A   Clear
5:55 AM 12.2 °F 6.1 °F 5.9 °F 76% 30.33 in 10.0 mi ENE 3.5 mph - N/A   Clear
6:15 AM 11.8 °F - 5.9 °F 77% 30.33 in 10.0 mi Calm Calm - N/A   Clear
6:35 AM 11.7 °F - 5.7 °F 77% 30.34 in 10.0 mi Calm Calm - N/A   Clear
6:55 AM 11.7 °F 5.5 °F 5.4 °F 76% 30.35 in 10.0 mi NE 3.5 mph - N/A   Clear
7:15 AM 10.8 °F 2.7 °F 5.7 °F 80% 30.33 in 10.0 mi ESE 4.6 mph - N/A   Clear
7:35 AM 11.7 °F 3.7 °F 5.7 °F 77% 30.33 in 10.0 mi East 4.6 mph - N/A   Clear
7:55 AM 12.2 °F 6.1 °F 5.5 °F 75% 30.34 in 10.0 mi ENE 3.5 mph - N/A   Clear
8:15 AM 13.1 °F 4.0 °F 6.1 °F 74% 30.33 in 10.0 mi East 5.8 mph - N/A   Clear
8:35 AM 14.0 °F 5.1 °F 6.8 °F 73% 30.32 in 10.0 mi ESE 5.8 mph - N/A   Clear
8:55 AM 14.7 °F 9.0 °F 7.3 °F 73% 30.33 in 10.0 mi ENE 3.5 mph - N/A   Clear
9:15 AM 16.0 °F 8.8 °F 8.4 °F 72% 30.32 in 10.0 mi East 4.6 mph - N/A   Scattered Clouds
9:35 AM 16.2 °F 6.5 °F 9.0 °F 73% 30.32 in 10.0 mi SE 6.9 mph - N/A   Scattered Clouds
9:55 AM 17.4 °F 10.4 °F 10.0 °F 73% 30.32 in 10.0 mi SE 4.6 mph - N/A   Clear
10:15 AM 18.1 °F - 10.4 °F 72% 30.31 in 10.0 mi Calm Calm - N/A   Clear
10:35 AM 19.0 °F 12.3 °F 11.3 °F 72% 30.31 in 10.0 mi South 4.6 mph - N/A   Clear
10:55 AM 20.8 °F 14.4 °F 13.3 °F 73% 30.31 in 10.0 mi SSE 4.6 mph - N/A   Clear
11:15 AM 22.1 °F - 13.5 °F 69% 30.30 in 10.0 mi Calm Calm - N/A   Clear
11:35 AM 21.6 °F - 13.5 °F 71% 30.28 in 10.0 mi Calm Calm - N/A   Clear
11:55 AM 22.1 °F - 13.8 °F 70% 30.28 in 10.0 mi Calm Calm - N/A   Clear
12:15 PM 23.2 °F - 14.5 °F 70% 30.28 in 10.0 mi Calm Calm - N/A   Clear
12:35 PM 25.5 °F 19.9 °F 15.6 °F 66% 30.27 in 10.0 mi SSE 4.6 mph - N/A   Clear
12:55 PM 26.4 °F 18.9 °F 16.2 °F 65% 30.26 in 10.0 mi SSE 6.9 mph - N/A   Clear
1:15 PM 27.0 °F 21.6 °F 15.6 °F 62% 30.25 in 10.0 mi South 4.6 mph - N/A   Clear
1:35 PM 27.5 °F 21.1 °F 14.2 °F 57% 30.24 in 10.0 mi South 5.8 mph - N/A   Clear
1:55 PM 28.2 °F 22.0 °F 15.1 °F 58% 30.23 in 10.0 mi South 5.8 mph - N/A   Clear
2:15 PM 28.4 °F 21.2 °F 14.0 °F 55% 30.23 in 10.0 mi South 6.9 mph - N/A   Clear
2:35 PM 29.1 °F 24.1 °F 12.7 °F 50% 30.22 in 10.0 mi SSE 4.6 mph - N/A   Clear
2:55 PM 30.0 °F 25.2 °F 15.4 °F 55% 30.21 in 10.0 mi SSE 4.6 mph - N/A   Clear
3:15 PM 30.2 °F 26.7 °F 14.5 °F 52% 30.20 in 10.0 mi SE 3.5 mph - N/A   Clear
3:35 PM 30.2 °F - 14.4 °F 52% 30.20 in 10.0 mi Calm Calm - N/A   Clear
3:55 PM 30.2 °F 26.7 °F 17.2 °F 59% 30.20 in 10.0 mi NNW 3.5 mph - N/A   Clear
4:15 PM 30.6 °F 27.1 °F 18.5 °F 61% 30.20 in 10.0 mi NNW 3.5 mph - N/A   Clear
4:35 PM 30.7 °F - 19.6 °F 63% 30.20 in 10.0 mi Calm Calm - N/A   Clear
4:55 PM 30.7 °F - 19.4 °F 63% 30.20 in 10.0 mi Calm Calm - N/A   Clear
5:15 PM 30.6 °F - 19.4 °F 63% 30.20 in 10.0 mi Calm Calm - N/A   Clear
5:35 PM 30.6 °F - 18.5 °F 61% 30.20 in 10.0 mi Calm Calm - N/A   Clear
5:55 PM 30.2 °F - 19.0 °F 63% 30.20 in 10.0 mi Calm Calm - N/A   Clear
6:15 PM 29.7 °F - 18.5 °F 63% 30.20 in 10.0 mi Calm Calm - N/A   Clear
6:35 PM 29.3 °F - 18.9 °F 65% 30.20 in 10.0 mi Calm Calm - N/A   Clear
6:55 PM 29.1 °F - 19.0 °F 66% 30.19 in 10.0 mi Calm Calm - N/A   Clear
7:15 PM 27.9 °F - 21.7 °F 78% 30.20 in 10.0 mi Calm Calm - N/A   Clear
7:35 PM 25.9 °F - 22.1 °F 86% 30.20 in 10.0 mi Calm Calm - N/A   Clear
7:55 PM 25.7 °F - 20.5 °F 81% 30.20 in 10.0 mi Calm Calm - N/A   Clear
8:15 PM 25.7 °F - 20.5 °F 81% 30.20 in 10.0 mi Calm Calm - N/A   Clear
8:35 PM 24.3 °F - 22.1 °F 91% 30.20 in 10.0 mi Calm Calm - N/A   Clear
8:55 PM 24.6 °F - 21.7 °F 89% 30.20 in 10.0 mi Calm Calm - N/A   Clear
9:15 PM 24.4 °F - 22.1 °F 91% 30.19 in 10.0 mi Calm Calm - N/A   Clear
9:35 PM 22.6 °F - 19.6 °F 88% 30.20 in 10.0 mi Calm Calm - N/A   Clear
9:55 PM 23.9 °F - 21.2 °F 89% 30.20 in 10.0 mi Calm Calm - N/A   Clear
10:15 PM 23.5 °F - 20.7 °F 89% 30.21 in 10.0 mi Calm Calm - N/A   Clear
10:35 PM 24.3 °F - 19.9 °F 84% 30.22 in 10.0 mi Calm Calm - N/A   Clear
10:55 PM 23.4 °F - 20.1 °F 87% 30.21 in 10.0 mi Calm Calm - N/A   Clear
11:15 PM 22.5 °F - 21.0 °F 94% 30.20 in 10.0 mi Calm Calm - N/A   Clear
11:35 PM 23.0 °F - 20.8 °F 91% 30.20 in 10.0 mi Calm Calm - N/A   Clear
11:55 PM 22.3 °F - 19.9 °F 91% 30.19 in 10.0 mi Calm Calm - N/A   Clear